Wind_Speed
2 3 3 5 6 6 6 6 7 9 10 12 12 15 14 15 14 15 14 12 11 11 10 11 11 11 13 12 12 12 13 13 12 14 14 15 15 13 13 12 13 12 12
5 3 3 4 5 5 7 7 7 7 7 8 9 12 16 16 16 14 13 12 12 12 11 10 10 12 13 13 12 12 13 13 12 12 13 14 14 13 12 11 11 9 9
5 4 3 4 5 6 7 7 8 7 7 8 7 9 16 18 15 15 14 13 12 11 11 11 11 12 11 12 13 13 13 12 12 12 11 12 13 12 11 10 11 10 8
3 4 4 4 4 6 7 6 7 8 8 7 8 6 8 18 14 14 14 14 13 12 11 11 12 11 11 11 12 13 13 12 12 11 10 10 11 12 10 10 9 9 8
7 2 3 5 3 6 7 7 7 7 8 8 7 6 8 17 18 15 13 13 13 12 11 11 12 12 11 10 11 12 13 11 11 9 9 9 11 11 11 10 9 8 8
4 2 1 4 5 3 7 7 7 8 8 7 6 5 7 13 18 16 14 13 12 11 10 11 12 11 11 10 11 11 13 12 11 9 10 9 9 10 9 9 9 7 7
14 13 4 6 6 5 5 7 8 8 9 9 8 6 5 6 18 17 15 13 13 12 11 12 12 12 11 11 11 10 11 11 10 10 10 8 9 9 9 8 9 8 7
26 19 8 12 9 6 7 7 7 8 9 9 7 7 6 3 9 12 15 15 13 12 13 13 13 12 12 11 10 11 10 10 11 8 8 8 7 8 7 7 7 7 6
29 23 18 10 15 11 8 9 8 8 8 8 8 8 7 6 7 10 14 15 14 14 14 15 14 13 12 11 11 11 11 10 9 9 9 10 8 6 5 5 5 5 4
39 31 11 7 13 14 11 10 10 10 9 9 10 9 8 8 8 10 12 14 15 15 15 15 15 15 13 12 10 12 11 10 10 9 4 7 7 6 5 4 2 2 2
38 38 31 38 14 17 13 10 9 9 10 9 8 10 9 10 10 10 13 13 15 15 15 16 17 16 14 13 12 11 12 11 8 7 8 6 6 4 3 1 1 2 2
39 37 35 37 4 12 14 11 7 9 10 9 8 7 9 11 12 12 11 11 15 16 16 18 18 18 17 15 14 13 12 11 10 9 7 5 3 3 2 3 5 6 6
38 38 37 32 33 8 3 7 8 9 10 10 9 8 9 10 11 11 12 12 17 16 16 16 18 18 18 16 14 13 13 13 12 10 9 8 6 6 7 8 9 10 11
33 35 34 33 29 23 5 3 8 10 10 11 11 11 10 10 11 13 13 13 15 18 15 15 17 18 17 18 17 16 15 14 13 13 11 11 11 12 12 13 13 14 14
32 29 30 29 26 22 16 8 4 8 8 11 12 12 12 12 12 13 14 14 16 18 16 14 18 19 19 19 18 18 17 17 16 15 16 16 16 17 16 17 18 19 18
32 22 24 24 24 23 17 13 6 5 9 10 12 13 15 16 15 15 14 15 16 17 17 17 17 20 20 20 20 20 20 20 19 20 19 20 18 19 19 19 18 18 18
32 17 21 22 21 19 17 11 13 8 10 10 10 14 17 17 18 17 18 17 17 15 16 16 15 19 22 22 21 22 22 21 22 22 22 22 22 23 23 19 20 18 17
27 19 19 23 22 21 17 14 4 5 10 12 14 15 17 17 19 20 20 20 19 17 17 17 16 17 20 22 23 23 24 24 23 23 24 24 22 21 21 23 22 23 19
23 22 22 22 22 20 20 17 13 7 4 8 12 20 17 18 21 22 21 22 21 22 20 20 19 20 19 20 21 20 21 20 22 22 22 23 22 20 21 20 21 22 24
25 24 25 22 21 20 19 18 16 13 8 8 10 13 18 19 20 21 23 22 21 23 21 19 19 19 19 21 20 19 20 21 22 22 21 23 21 22 21 18 18 24 24
28 26 26 27 20 18 18 17 16 13 11 10 12 13 15 15 21 22 24 22 23 22 25 20 19 18 21 22 20 21 21 21 22 22 21 23 19 26 26 17 14 18 21
26 28 28 27 22 17 17 18 16 15 13 10 10 11 12 15 17 23 27 25 23 23 23 23 21 19 20 17 18 20 21 22 24 24 24 27 24 27 20 18 15 20 24
24 28 29 26 17 15 15 17 18 19 17 14 11 11 11 12 14 16 21 24 25 26 26 22 23 21 22 21 20 21 22 21 20 18 22 24 26 22 21 20 22 22 21
25 29 26 19 14 15 15 17 19 19 18 15 13 12 13 12 12 14 15 16 22 22 23 22 22 21 22 21 20 21 22 22 21 21 18 15 23 22 24 23 23 22 23
24 27 17 11 12 12 13 16 18 19 15 15 13 11 9 15 14 10 13 15 14 20 20 24 21 25 23 21 23 21 21 23 24 25 29 25 29 27 23 22 21 20 20
20 16 12 14 13 10 11 14 15 17 16 14 14 8 8 9 12 10 10 14 17 22 26 25 28 25 26 24 21 21 22 24 21 23 17 25 28 21 20 20 18 16 17
Wind_Direction
348 150 134 119 128 154 174 187 181 174 179 183 180 181 177 172 172 170 162 156 150 142 147 143 141 137 126 126 125 128 121 115 115 109 105 99 92 95 100 101 104 103 107
346 275 157 134 128 154 170 189 194 186 187 180 178 182 186 180 170 166 162 160 159 152 155 149 153 135 131 133 135 133 126 118 116 112 108 110 103 97 96 95 97 99 106
325 301 243 166 142 153 161 182 191 184 188 191 181 176 191 170 169 171 165 164 164 165 162 153 145 135 133 134 139 139 130 119 117 110 111 112 112 107 102 99 97 98 103
195 298 287 210 153 142 155 174 183 190 191 185 188 185 177 187 170 172 173 171 166 174 163 159 148 139 135 138 142 146 132 130 121 111 116 119 115 112 110 106 104 99 98
143 155 312 290 215 140 139 159 184 196 188 180 181 190 178 186 187 182 178 175 177 173 162 159 149 149 142 147 143 149 137 135 125 116 116 126 124 120 117 113 112 104 100
138 252 180 286 280 197 147 165 181 198 195 173 177 204 185 192 185 183 181 179 177 175 161 158 151 158 148 155 143 142 140 141 135 122 113 113 114 117 118 113 110 111 108
25 32 296 258 266 247 182 173 177 194 198 185 186 197 209 206 173 178 185 183 181 174 166 166 158 160 151 156 149 141 138 143 139 133 125 118 114 110 111 110 107 107 108
24 7 355 235 225 240 218 193 185 188 197 191 185 194 203 204 180 184 190 183 180 180 172 171 164 162 157 154 157 149 143 148 148 140 132 126 117 112 108 106 104 102 101
16 1 344 259 207 201 212 204 196 193 187 187 183 201 198 188 190 190 182 182 181 186 181 175 172 170 166 157 160 153 159 165 157 147 149 136 128 115 108 102 92 88 86
16 347 291 220 205 191 198 210 203 193 185 188 195 199 195 194 188 195 185 187 188 189 186 183 180 180 179 176 172 152 159 167 163 156 149 143 135 132 123 117 117 101 97
24 23 3 350 198 187 195 195 202 209 193 189 209 207 199 190 197 196 202 193 193 193 193 189 189 189 192 190 189 175 174 172 170 166 164 169 154 159 150 159 265 279 283
20 24 19 20 50 201 191 193 212 218 210 201 200 218 210 204 202 200 196 202 203 198 202 198 196 195 195 198 193 187 188 182 180 180 182 198 202 220 239 261 278 293 300
13 19 22 24 23 26 222 201 229 226 220 214 215 218 215 215 206 209 200 201 200 201 204 205 206 206 202 201 204 198 197 199 195 200 204 213 228 251 261 267 269 278 285
9 11 17 23 27 31 7 269 228 239 227 221 226 218 217 217 219 215 210 201 191 194 197 208 215 217 216 210 211 210 210 215 214 220 224 233 241 253 261 261 265 269 271
358 4 11 20 24 34 38 1 257 232 233 231 237 242 235 227 222 221 209 210 209 210 207 214 216 220 222 224 223 226 224 223 231 234 237 244 249 261 266 270 272 272 272
349 357 7 15 21 19 22 36 348 258 238 233 230 239 245 244 233 226 218 208 211 211 210 217 222 219 224 225 230 233 237 237 236 239 246 252 259 266 273 277 274 265 265
357 7 2 12 17 24 14 6 31 359 276 265 235 205 243 240 240 233 228 219 221 213 218 223 230 226 224 228 232 236 239 245 249 251 251 255 262 263 266 270 269 276 273
9 11 0 2 9 13 18 10 333 25 345 276 233 230 246 241 242 237 229 230 221 223 219 223 227 229 226 229 235 238 245 249 253 256 261 260 256 255 258 261 263 260 263
358 359 353 352 358 8 11 13 6 327 301 314 269 252 250 231 228 243 233 228 225 222 219 222 222 227 230 230 234 239 243 248 250 253 254 258 258 254 257 255 266 270 254
341 342 346 345 346 355 7 5 1 349 309 265 267 272 240 233 232 233 234 228 224 229 225 224 232 238 235 234 236 246 247 248 254 253 255 254 256 256 253 263 270 283 274
336 333 331 337 337 348 352 359 357 354 332 289 274 267 281 269 235 232 221 227 231 230 233 228 240 237 240 243 242 254 248 250 252 251 253 254 241 259 252 253 273 275 269
331 328 328 325 327 343 348 349 347 349 338 313 289 281 275 266 276 236 219 227 230 236 228 231 234 239 239 241 245 247 250 249 254 253 252 259 264 263 266 267 267 260 266
330 326 328 322 324 340 351 353 348 343 343 328 292 292 281 281 270 281 232 217 228 234 246 237 236 239 240 246 244 249 252 245 256 258 262 259 258 256 259 268 275 273 276
330 326 328 324 332 348 360 3 360 351 347 338 318 301 263 273 283 264 258 240 233 244 245 235 243 249 240 239 248 249 244 247 264 257 263 259 245 242 250 261 268 279 286
328 327 325 329 342 351 357 3 3 4 356 358 337 299 277 261 270 272 262 252 266 237 240 236 244 250 243 242 239 246 251 255 265 263 257 244 261 242 240 251 262 271 278
328 331 334 333 337 346 351 352 353 347 358 360 357 325 305 274 239 263 265 261 257 257 247 233 238 241 240 239 240 249 251 261 268 278 238 259 261 248 235 250 262 277 278
Height
5874 5874 5874 5874 5874 5874 5874 5875 5875 5876 5877 5878 5879 5880 5881 5883 5885 5886 5887 5888 5890 5891 5893 5894 5895 5895 5895 5896 5898 5899 5900 5900 5902 5902 5902 5903 5904 5906 5906 5906 5907 5908 5908
5874 5875 5874 5874 5873 5874 5875 5875 5876 5877 5878 5878 5879 5880 5881 5883 5884 5886 5887 5889 5891 5892 5894 5895 5895 5896 5897 5898 5899 5901 5902 5902 5904 5904 5904 5905 5906 5907 5908 5909 5909 5910 5910
5874 5874 5874 5874 5873 5873 5874 5875 5876 5877 5878 5879 5880 5881 5881 5883 5885 5886 5887 5889 5891 5894 5895 5896 5897 5897 5898 5900 5901 5903 5903 5904 5906 5906 5907 5908 5908 5909 5910 5911 5911 5912 5913
5871 5874 5874 5874 5873 5872 5873 5875 5876 5877 5878 5879 5880 5881 5881 5883 5885 5886 5888 5890 5891 5894 5895 5896 5897 5898 5900 5902 5902 5904 5904 5906 5907 5908 5909 5911 5910 5911 5912 5913 5914 5914 5915
5871 5872 5872 5874 5873 5872 5873 5875 5876 5878 5878 5879 5880 5881 5882 5883 5885 5887 5888 5890 5892 5894 5896 5897 5898 5900 5902 5903 5904 5905 5906 5908 5909 5910 5910 5912 5912 5913 5913 5914 5915 5916 5916
5863 5873 5870 5872 5873 5873 5872 5873 5874 5877 5878 5878 5880 5881 5882 5884 5885 5887 5888 5891 5892 5894 5896 5898 5899 5902 5904 5905 5906 5907 5907 5909 5910 5911 5912 5913 5914 5914 5915 5916 5916 5917 5918
5880 5871 5869 5872 5872 5873 5873 5873 5873 5875 5877 5878 5879 5881 5883 5884 5885 5887 5889 5891 5893 5894 5897 5899 5901 5904 5905 5907 5908 5908 5909 5911 5912 5912 5913 5914 5915 5916 5917 5917 5917 5918 5919
5873 5870 5867 5868 5870 5872 5873 5873 5874 5875 5877 5877 5879 5881 5883 5885 5887 5888 5890 5891 5893 5895 5897 5900 5902 5905 5906 5908 5909 5909 5911 5912 5913 5915 5915 5916 5917 5918 5918 5919 5919 5920 5920
5876 5872 5869 5864 5864 5868 5872 5873 5874 5875 5877 5878 5878 5881 5884 5885 5888 5889 5890 5893 5894 5896 5898 5900 5903 5906 5907 5908 5909 5910 5911 5913 5914 5915 5916 5916 5917 5919 5920 5920 5921 5921 5922
5872 5861 5843 5855 5862 5864 5869 5873 5874 5875 5877 5878 5879 5881 5884 5886 5888 5890 5891 5892 5895 5896 5898 5900 5903 5905 5908 5908 5909 5910 5912 5913 5914 5915 5918 5917 5918 5919 5920 5921 5921 5922 5922
5878 5865 5847 5859 5863 5863 5867 5872 5874 5876 5877 5878 5880 5881 5882 5885 5888 5890 5892 5893 5895 5897 5899 5901 5903 5905 5908 5909 5910 5911 5911 5913 5915 5916 5917 5918 5918 5919 5920 5921 5922 5923 5923
5878 5876 5872 5867 5866 5862 5865 5872 5875 5876 5877 5877 5879 5881 5883 5884 5887 5889 5891 5893 5895 5897 5899 5901 5903 5904 5907 5909 5910 5911 5912 5913 5914 5916 5918 5919 5919 5920 5921 5922 5923 5923 5924
5880 5877 5874 5871 5867 5863 5867 5872 5874 5876 5877 5878 5879 5881 5883 5884 5886 5889 5890 5892 5895 5897 5899 5901 5902 5904 5906 5908 5910 5912 5912 5913 5914 5915 5916 5917 5918 5919 5920 5921 5921 5922 5922
5885 5880 5878 5872 5870 5868 5871 5873 5874 5874 5876 5878 5879 5880 5882 5884 5885 5887 5890 5892 5894 5896 5898 5900 5902 5904 5906 5907 5909 5911 5912 5913 5914 5914 5915 5916 5917 5918 5919 5919 5919 5919 5920
5888 5883 5879 5878 5876 5874 5873 5872 5873 5874 5875 5877 5879 5881 5882 5883 5884 5886 5888 5890 5892 5893 5896 5899 5900 5902 5904 5906 5908 5909 5911 5911 5912 5913 5913 5914 5915 5916 5916 5917 5917 5916 5916
5888 5886 5884 5880 5877 5874 5872 5873 5873 5874 5874 5876 5878 5880 5881 5882 5884 5885 5886 5888 5889 5892 5893 5894 5897 5899 5901 5904 5905 5907 5908 5909 5910 5910 5912 5912 5913 5913 5913 5913 5912 5911 5910
5888 5887 5885 5883 5880 5877 5875 5873 5872 5873 5872 5875 5876 5863 5879 5880 5881 5882 5885 5886 5887 5889 5890 5893 5895 5895 5898 5900 5902 5904 5905 5906 5907 5908 5909 5909 5910 5910 5910 5910 5909 5911 5910
5890 5889 5887 5884 5881 5878 5876 5873 5872 5871 5872 5873 5874 5875 5875 5877 5877 5880 5881 5883 5885 5886 5888 5890 5891 5892 5894 5896 5898 5900 5901 5903 5903 5904 5904 5905 5906 5904 5905 5905 5905 5902 5904
5893 5889 5887 5884 5882 5878 5876 5873 5871 5870 5869 5871 5870 5872 5872 5873 5874 5875 5877 5879 5882 5883 5885 5887 5889 5889 5891 5893 5894 5896 5898 5900 5900 5900 5901 5901 5900 5900 5899 5898 5898 5902 5891
5894 5891 5887 5884 5881 5879 5875 5873 5871 5868 5867 5868 5868 5867 5867 5868 5870 5871 5873 5876 5878 5880 5882 5884 5886 5887 5889 5889 5891 5892 5894 5894 5896 5896 5897 5896 5899 5897 5898 5900 5896 5894 5895
5893 5890 5887 5883 5880 5878 5875 5873 5871 5868 5867 5866 5865 5865 5864 5862 5863 5866 5869 5872 5875 5877 5879 5881 5881 5883 5884 5886 5887 5889 5890 5890 5891 5893 5893 5891 5893 5894 5893 5893 5896 5891 5892
5892 5888 5886 5883 5880 5876 5874 5872 5869 5867 5865 5864 5863 5862 5861 5861 5859 5859 5864 5867 5869 5872 5874 5877 5878 5879 5881 5883 5884 5884 5885 5886 5886 5888 5889 5886 5889 5887 5887 5887 5889 5889 5886
5891 5887 5883 5881 5879 5876 5874 5872 5867 5864 5861 5860 5858 5858 5857 5858 5858 5856 5855 5861 5865 5868 5870 5872 5874 5875 5877 5878 5879 5880 5880 5882 5883 5884 5884 5883 5881 5882 5882 5881 5884 5884 5884
5889 5885 5882 5879 5877 5875 5872 5870 5867 5863 5860 5856 5855 5854 5854 5855 5855 5855 5854 5857 5860 5863 5865 5867 5870 5871 5872 5873 5874 5874 5875 5877 5878 5879 5879 5877 5874 5879 5880 5881 5880 5879 5877
5887 5883 5879 5879 5877 5875 5872 5869 5866 5864 5860 5856 5853 5851 5850 5852 5852 5852 5854 5854 5855 5858 5860 5862 5864 5866 5867 5868 5869 5870 5871 5872 5873 5874 5874 5872 5874 5872 5876 5876 5876 5876 5876
5885 5882 5880 5878 5876 5874 5872 5868 5865 5862 5858 5855 5851 5849 5848 5848 5849 5850 5851 5852 5852 5854 5855 5857 5858 5860 5861 5862 5864 5865 5866 5867 5868 5867 5867 5870 5870 5871 5872 5871 5872 5871 5871